Location: L�Ave Maria
(50.7161°N, 1.5911°E)
Time: 00:29:44
(UTC+00:00)

Lacrosse 5 rocket - Pass Details

Date: 10 July 2020
Orbit: 464 x 632 km, 57.0° (Epoch: 03 August)

Event Time Altitude Azimuth Distance (km) Brightness Sun altitude
Rises 20:44:52 0° 290° (WNW) 2,801 6.3 -5.6°
Reaches altitude 10° 20:47:20 10° 299° (WNW) 1,871 5.5 -5.8°
Maximum altitude 20:51:14 35° 7° (N) 898 2.9 -6.3°
Drops below altitude 10° 20:54:57 10° 74° (ENE) 1,771 3.7 -6.7°
Sets 20:57:13 0° 84° (E) 2,629 4.4 -6.9°
